St. Joseph, KS

11:22 AM CDT on April 19, 2018 (GMT -0500)
Rosecrans Memorial

Weather History for KSTJ - August, 2013

Change the Weather History Date:

Thursday, August 29, 2013

  Actual Average Record
Temperature  
Mean Temperature 82 °F 73 °F  
Max Temperature 95 °F 85 °F 106 °F (1984)
Min Temperature 69 °F 61 °F 45 °F (1988)
Degree Days  
Heating Degree Days 0 0  
Month to date heating degree days 0 0  
Since 1 June heating degree days 17 9  
Since 1 July heating degree days 2 1  
Cooling Degree Days 17 8  
Month to date cooling degree days 289 308  
Year to date cooling degree days 1036 1062  
Since 1 June cooling degree days 910 949  
Growing Degree Days 31 (Base 50)    
Moisture  
Dew Point 70 °F    
Average Humidity 70    
Maximum Humidity 93    
Minimum Humidity 46    
Precipitation  
Precipitation 0.00 in 0.14 in 2.02 in (1989)
Month to date precipitation 1.26 3.69  
Year to date precipitation 19.67 26.01  
Sea Level Pressure  
Sea Level Pressure 29.97 in    
Wind  
Wind Speed 5 mph (South)    
Max Wind Speed 14 mph    
Max Gust Speed 18 mph    
Visibility 10 miles    
Events      
T = Trace of Precipitation, MM = Missing Value Source: NWS Daily Summary

Daily Weather History Graph

Daily Weather History Graph

Search for Another Location

Airport or City:

Astronomy

Aug. 29, 2013 Rise Set
Actual Time 6:45 AM CDT 7:55 PM CDT
Civil Twilight 6:17 AM CDT 8:22 PM CDT
Nautical Twilight 5:43 AM CDT 8:56 PM CDT
Astronomical Twilight 5:09 AM CDT 9:30 PM CDT
Moon 12:37 AM CDT (8/29) 3:24 PM CDT (8/29)
Length of Visible Light 14h 05m
Length of Day
13h 09m
Last Quarter, 38% of the Moon is Illuminated
Aug 29
Last Quarter
Sep 5
New
Sep 12
First Quarter
Sep 19
Full
Sep 26
Last Quarter

Hourly Weather History & Observations

Time (CDT) Temp. Heat Index Dew Point Humidity Pressure Visibility Wind Dir Wind Speed Gust Speed Precip Events Conditions
12:53 AM 72.0 °F - 69.1 °F 91% 30.00 in 10.0 mi Calm Calm - N/A   Clear
1:53 AM 73.0 °F - 71.1 °F 93% 30.00 in 10.0 mi Calm Calm - N/A   Clear
2:53 AM 71.1 °F - 68.0 °F 90% 30.00 in 10.0 mi Calm Calm - N/A   Clear
3:53 AM 69.1 °F - 66.0 °F 90% 30.00 in 10.0 mi Calm Calm - N/A   Clear
4:53 AM 69.1 °F - 66.9 °F 93% 30.01 in 10.0 mi Calm Calm - N/A   Clear
5:53 AM 69.1 °F - 66.9 °F 93% 30.01 in 10.0 mi Calm Calm - N/A   Partly Cloudy
6:53 AM 71.1 °F - 68.0 °F 90% 30.01 in 10.0 mi Calm Calm - N/A   Partly Cloudy
7:53 AM 75.9 °F - 71.1 °F 85% 30.01 in 10.0 mi SSW 3.5 mph - N/A   Clear
8:53 AM 80.1 °F 83.8 °F 72.0 °F 76% 30.01 in 10.0 mi South 3.5 mph - N/A   Clear
9:53 AM 82.0 °F 87.9 °F 73.9 °F 76% 30.01 in 10.0 mi SSW 3.5 mph - N/A   Partly Cloudy
10:53 AM 87.1 °F 93.6 °F 72.0 °F 61% 30.01 in 10.0 mi South 6.9 mph - N/A   Clear
11:53 AM 88.0 °F 94.7 °F 72.0 °F 59% 30.01 in 10.0 mi SSW 9.2 mph - N/A   Clear
12:53 PM 88.0 °F 94.7 °F 72.0 °F 59% 29.99 in 10.0 mi South 11.5 mph 18.4 mph N/A   Clear
1:53 PM 89.1 °F 95.0 °F 71.1 °F 55% 29.97 in 10.0 mi SSW 11.5 mph - N/A   Clear
2:53 PM 91.9 °F 99.5 °F 72.0 °F 52% 29.95 in 10.0 mi South 9.2 mph - N/A   Clear
3:53 PM 93.9 °F 100.8 °F 71.1 °F 47% 29.93 in 10.0 mi SSW 9.2 mph - N/A   Clear
4:53 PM 93.9 °F 100.3 °F 70.0 °F 46% 29.91 in 10.0 mi South 8.1 mph - N/A   Clear
5:53 PM 93.0 °F 99.0 °F 70.0 °F 47% 29.90 in 10.0 mi South 8.1 mph - N/A   Clear
6:53 PM 90.0 °F 96.4 °F 71.1 °F 54% 29.90 in 10.0 mi South 5.8 mph - N/A   Clear
7:53 PM 84.9 °F 90.7 °F 72.0 °F 65% 29.91 in 10.0 mi South 5.8 mph - N/A   Partly Cloudy
8:53 PM 82.9 °F 87.5 °F 71.1 °F 67% 29.92 in 10.0 mi South 4.6 mph - N/A   Mostly Cloudy
9:53 PM 81.0 °F 84.9 °F 71.1 °F 72% 29.92 in 10.0 mi South 3.5 mph - N/A   Scattered Clouds
10:53 PM 80.1 °F 83.8 °F 72.0 °F 76% 29.91 in 10.0 mi South 3.5 mph - N/A   Partly Cloudy
11:53 PM 78.1 °F - 71.1 °F 79% 29.91 in 10.0 mi South 3.5 mph - N/A   Partly Cloudy